Hourly Data Report for July 11, 2011

HALIFAX STANFIELD INT'L A
NOVA SCOTIA

44°52'48.060" N
63°30'00.050" W
145.40 m
8202250
71395
YHZ

Download Data

Hourly Data (July 2011)
Hourly Data Report for July 11, 2011
TIME
LST
Temp Definition
°C
Dew Point Definition
°C
Rel Hum Definition
%
Precip. Amount Definition
mm

Wind Dir Definition
10's deg

Wind Spd Definition
km/h
Visibility Definition
km
Stn Press Definition
kPa
Hmdx Definition


Wind Chill Definition


Weather Definition


00:00 15.3 10.0 71   23 13 24.1 99.80     Mainly Clear
01:00 13.9 9.6 75   24 11 24.1 99.76     Clear
02:00 13.8 9.3 74   21 6 24.1 99.75     Clear
03:00 12.6 9.6 82   19 9 24.1 99.76     Clear
04:00 13.1 9.6 79   21 15 24.1 99.75     Mostly Cloudy
05:00 15.2 9.8 70   21 15 24.1 99.76     Mostly Cloudy
06:00 15.0 10.8 76   22 19 24.1 99.80     Mostly Cloudy
07:00 16.9 11.8 72   22 22 24.1 99.80     Mostly Cloudy
08:00 17.6 13.0 74   21 19 24.1 99.83     Mostly Cloudy
09:00 21.8 11.9 53   22 26 24.1 99.82     Mostly Cloudy
10:00 21.8 13.4 59   20 24 24.1 99.78 25   Mostly Cloudy
11:00 21.3 13.4 61   22 28 24.1 99.75     Mostly Cloudy
12:00 23.7 14.5 56   21 28 24.1 99.68 27   Mainly Clear
13:00 24.2 14.2 54   22 33 24.1 99.62 28   Mainly Clear
14:00 24.9 14.8 53   19 28 24.1 99.55 29   Mainly Clear
15:00 24.9 15.2 55   20 26 24.1 99.51 29   Mainly Clear
16:00 24.2 15.5 58   20 26 24.1 99.44 28   Mainly Clear
17:00 22.8 14.8 61   18 26 24.1 99.40 27   Mainly Clear
18:00 21.9 15.1 65   19 28 24.1 99.37 26   Mostly Cloudy
19:00 19.5 13.9 70   18 22 24.1 99.34     Mostly Cloudy
20:00 17.5 12.9 74   19 20 24.1 99.36     Mostly Cloudy
21:00 16.7 12.6 77   19 24 24.1 99.34     Mostly Cloudy
22:00 16.4 12.3 77   19 24 24.1 99.33     Cloudy
23:00 15.7 10.0 69   19 26 24.1 99.29     Mostly Cloudy

Notes on Data Quality.

Legend

  • E = Estimated
  • M = Missing
  • NA = Not Available*
  • [empty] = Indicates an unobserved value
Date modified: